Tracking 33188 objects as of 10-Feb-2026
HD Live streaming from Space Station
objects crossing your sky now

STARLINK-31812

Track STARLINK-31812 now!
10-day predictions
STARLINK-31812 is classified as:


NORAD ID: 59800
Int'l Code: 2024-093U
Perigee: 489.4 km
Apogee: 490.9 km
Inclination: 43.0 °
Period: 94.3 minutes
Semi major axis: 6861 km
RCS: Unknown
Launch date: May 18, 2024
Source: United States (US)
Launch site: AIR FORCE EASTERN TEST RANGE (AFETR)
Your satellite tracking list
Your tracking list is empty




NASA's NSSDC Master Catalog

Two Line Element Set (TLE):
1 59800U 24093U   26040.30713615  .00001044  00000-0  47465-4 0  9997
2 59800  43.0059   9.2719 0001112 273.2388  86.8336 15.27581263 98428
Source of the keplerian elements: AFSPC